[[{"header":{"parameterUnit":"m.s-1","parameterCategory":2,"la1":30.2991,"la2":30.254,"lo1":-89.0895,"lo2":-89.0444,"dy":0.0017,"dx":0.0017,"nx":28,"ny":28,"refTime":"2023-10-07T09:00:00:Z","depth":"0","parameterNumber":2,"parameterNumberName":"U-component_of_CURRENTS"},"data":[0,0,0,0,0,0,0,0,0,0,0,0,0,0,0,0,0,0,0,0,0,0,0,0,0,0,0,0,0,0,0,0,0,0,0,0,0,0,0,0,0,0,0,0,0,0,0,0,0,0,0,0,0,0,0,0,0,0,0.1948,0.1949,0,0.1954,0.1954,0.1954,0.1953,0.1953,0.1953,0.1953,0.1964,0.1964,0.1964,0,0,0,0,0,0,0,0,0,0,0,0,0,0.1937,0.1937,0.1948,0.1949,0.1949,0.1954,0.1954,0.1954,0.1953,0.1953,0.1953,0.1953,0.1964,0.1964,0.1965,0,0,0,0,0,0,0,0,0,0,0,0,0,0.1941,0.1937,0.1948,0.195,0.1951,0.1954,0.1954,0.1954,0.1953,0.1953,0.1953,0.1953,0.1964,0.1964,0.1965,0.1965,0,0,0.1966,0.1966,0,0,0,0,0,0,0,0,0.1941,0.1941,0.195,0.195,0.1951,0.1954,0.1954,0.1958,0.1953,0.1951,0.1953,0.1953,0.1962,0.1963,0.1961,0.1965,0.1966,0.1966,0.1966,0.1966,0.1966,0,0,0,0,0,0,0,0.194,0.1941,0.1949,0.195,0.1951,0.1951,0.1951,0.1955,0.1955,0.1951,0.1951,0.1954,0.1962,0.1961,0.1962,0.1966,0.1966,0.1966,0.1966,0.1966,0.1973,0.1973,0,0,0,0,0,0,0.1943,0.1941,0.1949,0.1949,0.1948,0.1951,0.1952,0.1952,0.1955,0.1955,0.1954,0.1954,0.196,0.1961,0.1962,0.1979,0.1966,0.1966,0.1966,0.1973,0.1973,0.1973,0,0,0,0,0,0,0.1943,0.1943,0.1949,0.1947,0.1947,0.1952,0.1952,0.1952,0.1955,0.1957,0.1958,0.1958,0.196,0.1961,0.1964,0.1979,0.1966,0.1967,0.1973,0.1973,0.1973,0.2003,0,0,0,0,0,0,0.1942,0.1943,0.1944,0.1947,0.1948,0.1957,0.1952,0.1952,0.1957,0.1957,0.1961,0.1961,0.1961,0.1964,0.1965,0.1979,0.1967,0.1973,0.1973,0.1973,0.2002,0.2004,0.2006,0,0,0,0,0,0.1942,0.1944,0.1943,0.1945,0.1948,0.1958,0.1958,0.196,0.1957,0.1962,0.1959,0.1961,0.1964,0.1964,0.1965,0.198,0.1973,0.1973,0.1973,0.2001,0.2003,0.2005,0,0,0,0,0,0,0.194,0.1945,0.1944,0.1947,0.1955,0.1958,0.1963,0.1963,0.1963,0.1963,0.1961,0.1962,0.1973,0.1966,0.1966,0.1979,0.1969,0.1969,0.199,0.1992,0.1994,0.2021,0.1967,0,0,0,0,0,0.194,0.1942,0.1949,0.1952,0.1956,0.1959,0.1963,0.1965,0.1967,0.1968,0.1968,0.1967,0.1973,0.1974,0.1977,0.1982,0.2012,0.199,0.1992,0.1994,0.2015,0.2072,0.2082,0.1973,0.1973,0.1973,0,0,0.1938,0.1943,0.1943,0.1952,0.1956,0.1965,0.1961,0.1971,0.198,0.1969,0.1977,0.1977,0.1975,0.1984,0.1988,0.1981,0.2038,0.1994,0.1996,0.2016,0.2074,0.2085,0.2095,0.1972,0.1972,0.1972,0,0,0.1941,0.1943,0.1947,0.1956,0.1968,0.1972,0.1976,0.1982,0.1987,0.1992,0.1991,0.2001,0.1996,0.2008,0.201,0.2023,0.2049,0.2015,0.2046,0.2101,0.2112,0.2121,0.2169,0.2182,0.2013,0.2013,0.2013,0,0.194,0.1947,0.1951,0.1962,0.1973,0.1976,0.1988,0.1994,0.1999,0.2013,0.1997,0.2019,0.2013,0.2046,0.2045,0.2032,0.2065,0.204,0.2107,0.2117,0.2127,0.2173,0.2188,0.2014,0.2014,0.2014,0.2014,0,0.1946,0.1956,0.1962,0.1975,0.1987,0.1999,0.2012,0.2025,0.2027,0.2035,0.2065,0.2061,0.2083,0.2073,0.2061,0.212,0.2123,0.2108,0.2109,0.214,0.2186,0.2201,0.2016,0.2016,0.2015,0.2015,0,0,0.1935,0.1961,0.1963,0.1976,0.1998,0.2009,0.2033,0.2061,0.2093,0.2091,0.2138,0.2135,0.2146,0.2151,0.2146,0.218,0.2261,0.2172,0.2174,0.2233,0.2389,0.234,0.2352,0.2264,0.2267,0.2269,0.2394,0,0.194,0.1962,0.1975,0.2,0.2014,0.2038,0.2065,0.2092,0.2117,0.2162,0.2175,0.2211,0.2172,0.2194,0.2225,0.226,0.2303,0.223,0.2339,0.2343,0.2307,0.2368,0.228,0.238,0.2408,0.2411,0.2413,0,0.194,0.1958,0.1981,0.2025,0.2034,0.2052,0.2113,0.214,0.2203,0.2228,0.2272,0.2292,0.2349,0.231,0.2402,0.236,0.2384,0.2401,0.2406,0.2366,0.2322,0.2353,0.2406,0.2393,0.2436,0.2434,0.2432,0,0.1928,0.1963,0.1983,0.1995,0.2042,0.2068,0.2098,0.2159,0.2202,0.2285,0.2337,0.2394,0.2447,0.2486,0.2514,0.2475,0.2619,0.2569,0.255,0.2547,0.2497,0.2484,0.2564,0.265,0.265,0.265,0.265,0,0.1926,0.1943,0.198,0.1992,0.2029,0.2068,0.2125,0.2169,0.2257,0.2318,0.2375,0.2442,0.2498,0.2574,0.2575,0.2621,0.2676,0.2585,0.2587,0.2501,0.2488,0.2491,0.2466,0.2655,0.2653,0.2653,0.2652,0,0.1906,0.1929,0.1956,0.2005,0.2022,0.2049,0.2129,0.2179,0.2267,0.2361,0.2397,0.2515,0.2608,0.266,0.2744,0.2708,0.2681,0.2745,0.2636,0.2621,0.2543,0.2521,0.2485,0.2401,0.2743,0.2742,0.2742,0,0.1896,0.1908,0.1952,0.197,0.1992,0.204,0.2078,0.2166,0.2225,0.2389,0.2436,0.2577,0.2646,0.2763,0.2748,0.2777,0.2698,0.2698,0.2593,0.2557,0.2536,0.2413,0.2336,0.2544,0.2542,0.2541,0.254,0,0.1881,0.1897,0.1919,0.1949,0.1983,0.2024,0.2087,0.2131,0.2246,0.2332,0.2451,0.2531,0.266,0.2658,0.271,0.2697,0.2576,0.2664,0.267,0.2431,0.2264,0.2177,0.2444,0.2526,0.2527,0.2528,0.2529,0.253,0.1869,0.1874,0.19,0.1925,0.1958,0.199,0.2001,0.2078,0.215,0.2255,0.2377,0.2468,0.2555,0.2606,0.2581,0.253,0.2481,0.2464,0.2458,0.2352,0.2211,0.2441,0.2487,0.2488,0.2489,0.2489,0.249,0,0.1841,0.185,0.1876,0.1891,0.1897,0.1936,0.199,0.199,0.2024,0.2157,0.2236,0.2355,0.2375,0.2431,0.244,0.2368,0.2211,0.2319,0.2155,0.2099,0.2369,0.2301,0.2256,0.2256,0.2256,0.2256,0.2256,0.2257,0.1827,0.1826,0.1832,0.1817,0.1828,0.1809,0.1817,0.1834,0.19,0.198,0.2065,0.2163,0.2359,0.2422,0.2392,0.2309,0.2143,0.2033,0.2023,0.2267,0.2281,0.2293,0.2227,0.2167,0.2167,0.1655,0.1651,0.1649]},{"header":{"parameterUnit":"m.s-1","parameterCategory":2,"la1":30.2991,"la2":30.254,"lo1":-89.0895,"lo2":-89.0444,"dy":0.0017,"dx":0.0017,"nx":28,"ny":28,"refTime":"2023-10-07T09:00:00:Z","depth":"0","parameterNumber":3,"parameterNumberName":"V-component_of_CURRENTS"},"data":[0,0,0,0,0,0,0,0,0,0,0,0,0,0,0,0,0,0,0,0,0,0,0,0,0,0,0,0,0,0,0,0,0,0,0,0,0,0,0,0,0,0,0,0,0,0,0,0,0,0,0,0,0,0,0,0,0,0,-0.0083,-0.0083,0,-0.0118,-0.0118,-0.0119,-0.0144,-0.0144,-0.0144,-0.0145,-0.0202,-0.0204,-0.0205,0,0,0,0,0,0,0,0,0,0,0,0,0,-0.0072,-0.0072,-0.0083,-0.0083,-0.0083,-0.0118,-0.0118,-0.0119,-0.0144,-0.0144,-0.0144,-0.0145,-0.0202,-0.0203,-0.0205,0,0,0,0,0,0,0,0,0,0,0,0,0,-0.0089,-0.0072,-0.0083,-0.01,-0.0102,-0.0118,-0.0118,-0.0119,-0.0144,-0.0144,-0.0145,-0.0145,-0.0201,-0.0203,-0.0205,-0.0213,0,0,-0.0212,-0.0212,0,0,0,0,0,0,0,0,-0.0088,-0.0089,-0.0097,-0.0099,-0.0101,-0.0126,-0.0136,-0.0151,-0.0144,-0.0128,-0.0145,-0.0145,-0.0179,-0.0182,-0.0189,-0.0215,-0.0218,-0.0212,-0.0213,-0.0214,-0.0214,0,0,0,0,0,0,0,-0.0087,-0.0088,-0.0097,-0.0097,-0.01,-0.0118,-0.012,-0.0139,-0.0152,-0.013,-0.0132,-0.0135,-0.018,-0.0187,-0.019,-0.0219,-0.0212,-0.0214,-0.0215,-0.0216,-0.0245,-0.0245,0,0,0,0,0,0,-0.0079,-0.0087,-0.0096,-0.0098,-0.0094,-0.0117,-0.012,-0.0118,-0.0152,-0.0157,-0.0134,-0.0136,-0.0183,-0.0188,-0.0193,-0.0195,-0.0214,-0.0216,-0.0217,-0.0246,-0.0245,-0.0245,0,0,0,0,0,0,-0.0079,-0.008,-0.0094,-0.0093,-0.0096,-0.0117,-0.0115,-0.0119,-0.0124,-0.0155,-0.0161,-0.0135,-0.0183,-0.019,-0.0201,-0.0198,-0.0217,-0.0219,-0.0246,-0.0246,-0.0245,-0.0205,0,0,0,0,0,0,-0.0078,-0.0079,-0.0075,-0.0093,-0.0096,-0.0097,-0.0115,-0.0119,-0.0125,-0.0127,-0.0157,-0.0163,-0.0184,-0.0198,-0.0203,-0.0201,-0.022,-0.0247,-0.0246,-0.0245,-0.0207,-0.0203,-0.02,0,0,0,0,0,-0.0078,-0.0069,-0.0075,-0.0076,-0.009,-0.0097,-0.01,-0.0117,-0.0125,-0.0123,-0.0141,-0.0162,-0.0197,-0.0199,-0.0206,-0.0204,-0.0247,-0.0246,-0.0245,-0.0208,-0.0204,-0.02,0,0,0,0,0,0,-0.0062,-0.0071,-0.0078,-0.0072,-0.0081,-0.0101,-0.01,-0.0112,-0.0125,-0.0127,-0.0157,-0.0163,-0.0172,-0.0191,-0.0193,-0.0209,-0.0225,-0.0226,-0.0195,-0.0191,-0.0187,-0.0183,-0.0222,0,0,0,0,0,-0.0056,-0.0051,-0.0065,-0.006,-0.0062,-0.008,-0.0086,-0.0096,-0.011,-0.0116,-0.0138,-0.0158,-0.0174,-0.0184,-0.0201,-0.021,-0.0234,-0.0212,-0.0209,-0.0206,-0.0205,-0.0242,-0.0242,-0.0242,-0.0242,-0.0242,0,0,-0.0049,-0.0053,-0.0051,-0.0056,-0.0064,-0.0062,-0.0084,-0.0086,-0.0085,-0.0121,-0.0125,-0.0146,-0.0172,-0.0181,-0.0187,-0.0196,-0.0215,-0.0204,-0.0201,-0.0203,-0.0241,-0.0242,-0.0242,-0.0241,-0.0241,-0.0241,0,0,-0.003,-0.0034,-0.0024,-0.0028,-0.0036,-0.0046,-0.0044,-0.0061,-0.0068,-0.0076,-0.0099,-0.0117,-0.0141,-0.016,-0.0172,-0.0159,-0.0194,-0.0163,-0.0145,-0.018,-0.0181,-0.0182,-0.02,-0.0203,-0.0163,-0.0163,-0.0163,0,-0.0022,-0.0009,-0.0022,-0.0013,-0.0012,-0.0035,-0.0024,-0.0034,-0.0053,-0.0058,-0.0071,-0.011,-0.0132,-0.0147,-0.0141,-0.0153,-0.0173,-0.0159,-0.0177,-0.0178,-0.018,-0.0198,-0.0201,-0.0161,-0.0162,-0.0162,-0.0162,0,0.0004,0.0013,0.002,0.0025,0.0024,0.0031,0.0017,0.0013,-0.0001,-0.0018,-0.0036,-0.007,-0.0094,-0.0104,-0.012,-0.0138,-0.0147,-0.0167,-0.0188,-0.0177,-0.0197,-0.0201,-0.0158,-0.0159,-0.016,-0.016,0,0,0.0029,0.0037,0.0041,0.0053,0.0047,0.0052,0.0054,0.0049,0.0052,0.0021,0.0016,-0.0019,-0.0045,-0.006,-0.0087,-0.012,-0.0144,-0.0144,-0.0147,-0.0162,-0.0212,-0.0197,-0.0201,-0.017,-0.0171,-0.0172,-0.0216,0,0.0055,0.0083,0.0078,0.0105,0.012,0.0104,0.011,0.0101,0.0082,0.0071,0.0025,0.001,-0.0026,-0.0036,-0.0075,-0.0125,-0.0157,-0.013,-0.022,-0.0222,-0.0211,-0.0206,-0.0185,-0.0222,-0.0221,-0.0222,-0.0222,0,0.0086,0.0102,0.0135,0.0153,0.0158,0.017,0.0179,0.018,0.0153,0.0137,0.0102,0.0063,0.002,-0.0016,-0.0107,-0.0088,-0.0145,-0.0191,-0.0194,-0.0199,-0.0216,-0.0235,-0.0231,-0.0353,-0.023,-0.0229,-0.0228,0,0.0122,0.0145,0.0176,0.0182,0.0195,0.021,0.0216,0.0203,0.0215,0.018,0.0182,0.0107,0.0088,-0.0006,-0.0094,-0.0105,-0.0194,-0.0223,-0.0265,-0.0264,-0.0273,-0.0272,-0.04,-0.0294,-0.0294,-0.0294,-0.0294,0,0.0157,0.0182,0.0198,0.0218,0.0261,0.0252,0.0288,0.028,0.0276,0.0304,0.0223,0.0231,0.0088,0.0022,-0.0078,-0.0173,-0.0184,-0.0259,-0.0277,-0.0256,-0.0252,-0.0381,-0.0455,-0.0296,-0.0295,-0.0295,-0.0295,0,0.0191,0.0201,0.0241,0.0267,0.0282,0.0313,0.0351,0.0377,0.0363,0.0396,0.0392,0.0324,0.0244,0.0104,-0.0037,-0.0131,-0.0309,-0.0272,-0.0226,-0.0238,-0.0392,-0.0463,-0.0606,-0.0681,-0.0332,-0.0332,-0.0332,0,0.0212,0.0238,0.0286,0.0321,0.0338,0.0383,0.0422,0.0425,0.0462,0.047,0.05,0.0427,0.0404,0.02,0.0009,-0.0167,-0.0299,-0.0268,-0.0292,-0.0397,-0.049,-0.0543,-0.06,-0.0286,-0.0286,-0.0286,-0.0285,0,0.0255,0.0273,0.031,0.0381,0.0434,0.0489,0.0546,0.0591,0.061,0.0647,0.0687,0.0667,0.0476,0.0304,0.0052,-0.0076,-0.0359,-0.0265,-0.04,-0.0484,-0.0527,-0.0607,-0.0252,-0.0282,-0.0283,-0.0283,-0.0283,-0.0283,0.0292,0.0326,0.038,0.0448,0.0511,0.0592,0.0652,0.0722,0.0803,0.0868,0.0839,0.0842,0.0561,0.0224,0.0035,-0.0313,-0.0341,-0.0422,-0.0503,-0.0549,-0.0616,-0.024,-0.0274,-0.0275,-0.0275,-0.0275,-0.0275,0,0.0337,0.0377,0.0444,0.0529,0.0606,0.0628,0.0736,0.0806,0.0924,0.0984,0.102,0.0886,0.0568,0.0221,-0.024,-0.0497,-0.0618,-0.0657,-0.0747,-0.0799,-0.0483,-0.0475,-0.0524,-0.0524,-0.0524,-0.0524,-0.0524,-0.0523,0.0365,0.0434,0.0467,0.0598,0.0659,0.0769,0.0836,0.0946,0.1019,0.11,0.1103,0.1063,0.0777,-0.0031,-0.0614,-0.0764,-0.0976,-0.1008,-0.1141,-0.0937,-0.0922,-0.0907,-0.0918,-0.1059,-0.106,-0.1419,-0.1423,-0.1425]}],[{"header":{"parameterUnit":"m.s-1","parameterCategory":2,"la1":30.2991,"la2":30.254,"lo1":-89.0895,"lo2":-89.0444,"dy":0.0017,"dx":0.0017,"nx":28,"ny":28,"refTime":"2023-10-07T09:00:00:Z","depth":"2","parameterNumber":2,"parameterNumberName":"U-component_of_CURRENTS"},"data":[0,0,0,0,0,0,0,0,0,0,0,0,0,0,0,0,0,0,0,0,0,0,0,0,0,0,0,0,0,0,0,0,0,0,0,0,0,0,0,0,0,0,0,0,0,0,0,0,0,0,0,0,0,0,0,0,0,0,0.1892,0.1892,0,0.1897,0.1896,0.1896,0.1898,0.1898,0.1898,0.1898,0.191,0.191,0.1911,0,0,0,0,0,0,0,0,0,0,0,0,0,0.1881,0.1881,0.1892,0.1892,0.1892,0.1897,0.1896,0.1896,0.1898,0.1898,0.1898,0.1898,0.191,0.191,0.1911,0,0,0,0,0,0,0,0,0,0,0,0,0,0.1884,0.1881,0.1892,0.1895,0.1895,0.1897,0.1896,0.1896,0.1898,0.1898,0.1898,0.1898,0.191,0.191,0.1911,0.1909,0,0,0.1912,0.1912,0,0,0,0,0,0,0,0,0.1884,0.1884,0.1894,0.1895,0.1895,0.1898,0.1897,0.1901,0.1898,0.1895,0.1898,0.1898,0.1908,0.1908,0.1906,0.1909,0.191,0.1912,0.1912,0.1912,0.1912,0,0,0,0,0,0,0,0.1884,0.1884,0.1892,0.1894,0.1895,0.1895,0.1895,0.1898,0.1899,0.1895,0.1896,0.1899,0.1908,0.1906,0.1907,0.191,0.1912,0.1912,0.1912,0.1912,0.192,0.192,0,0,0,0,0,0,0.1887,0.1884,0.1892,0.1892,0.1892,0.1895,0.1896,0.1896,0.1899,0.19,0.1899,0.1899,0.1905,0.1906,0.1907,0.1926,0.1912,0.1912,0.1912,0.192,0.192,0.192,0,0,0,0,0,0,0.1886,0.1887,0.1892,0.189,0.1891,0.1895,0.1895,0.1896,0.19,0.1902,0.1903,0.1904,0.1906,0.1907,0.1911,0.1925,0.1912,0.1913,0.192,0.192,0.192,0.195,0,0,0,0,0,0,0.1886,0.1887,0.1888,0.189,0.1891,0.19,0.1895,0.1896,0.1902,0.1903,0.1907,0.1907,0.1906,0.191,0.1911,0.1926,0.1913,0.192,0.192,0.192,0.1949,0.1951,0.1952,0,0,0,0,0,0.1885,0.1889,0.1888,0.1889,0.1892,0.1901,0.1901,0.1904,0.1903,0.1908,0.1905,0.1908,0.1911,0.1911,0.1911,0.1927,0.192,0.192,0.192,0.1948,0.195,0.1952,0,0,0,0,0,0,0.1885,0.1889,0.1889,0.1893,0.19,0.1902,0.1907,0.1908,0.1909,0.191,0.1908,0.1908,0.192,0.1914,0.1913,0.1927,0.1916,0.1916,0.1937,0.1939,0.1941,0.1968,0.1913,0,0,0,0,0,0.1885,0.1888,0.1894,0.1898,0.1902,0.1905,0.1908,0.1911,0.1913,0.1914,0.1915,0.1914,0.192,0.1922,0.1924,0.1929,0.1958,0.1938,0.194,0.1942,0.1963,0.2019,0.2029,0.192,0.192,0.192,0,0,0.1885,0.1889,0.189,0.1898,0.1902,0.1911,0.1907,0.1917,0.1926,0.1915,0.1925,0.1925,0.1923,0.1932,0.1936,0.1929,0.1985,0.1942,0.1944,0.1964,0.202,0.2031,0.2041,0.192,0.192,0.192,0,0,0.1888,0.1891,0.1896,0.1904,0.1916,0.1919,0.1924,0.193,0.1935,0.194,0.1939,0.195,0.1945,0.1956,0.1958,0.1971,0.1996,0.1964,0.1996,0.2049,0.206,0.2069,0.2113,0.2127,0.1962,0.1962,0.1962,0,0.1889,0.1895,0.1899,0.191,0.192,0.1924,0.1936,0.1942,0.1947,0.1961,0.1947,0.1969,0.1962,0.1993,0.1993,0.198,0.2012,0.1989,0.2055,0.2065,0.2074,0.2118,0.2132,0.1964,0.1964,0.1963,0.1963,0,0.1895,0.1904,0.191,0.1924,0.1935,0.1947,0.1959,0.1972,0.1976,0.1984,0.2014,0.201,0.2031,0.2021,0.201,0.2068,0.207,0.2056,0.2056,0.2088,0.213,0.2145,0.1966,0.1965,0.1965,0.1964,0,0,0.1885,0.1909,0.1912,0.1925,0.1946,0.1956,0.198,0.2006,0.2037,0.2038,0.2085,0.2081,0.2094,0.2098,0.2093,0.2127,0.2206,0.212,0.2122,0.2177,0.233,0.2273,0.2283,0.221,0.2213,0.2215,0.2332,0,0.189,0.1911,0.1924,0.1948,0.1961,0.1984,0.2009,0.2036,0.2061,0.2106,0.2119,0.2156,0.2119,0.2142,0.2172,0.2206,0.2247,0.2176,0.2281,0.2284,0.2241,0.2299,0.2073,0.2154,0.2346,0.2349,0.235,0,0.189,0.1907,0.1929,0.197,0.198,0.1997,0.2056,0.2081,0.2145,0.2169,0.2215,0.2236,0.2293,0.2256,0.2345,0.2305,0.2328,0.2343,0.2348,0.23,0.2255,0.2153,0.2173,0.2375,0.2373,0.2371,0.2369,0,0.1878,0.1912,0.1932,0.1943,0.1987,0.2012,0.2041,0.2101,0.2142,0.2227,0.2277,0.2335,0.2389,0.2427,0.2453,0.2416,0.2554,0.2505,0.2477,0.2473,0.2305,0.2281,0.2584,0.2584,0.2584,0.2583,0.2583,0,0.1876,0.1893,0.1929,0.194,0.1976,0.2013,0.2068,0.2112,0.2197,0.2256,0.2316,0.2379,0.2439,0.2512,0.2512,0.2549,0.2608,0.2511,0.251,0.2305,0.2282,0.2486,0.2473,0.2588,0.2587,0.2586,0.2585,0,0.1857,0.1879,0.1905,0.1953,0.1969,0.1996,0.2074,0.2121,0.2208,0.2298,0.2335,0.245,0.2537,0.2589,0.267,0.2633,0.2665,0.2661,0.2414,0.2382,0.2532,0.2519,0.2646,0.2645,0.2645,0.2644,0.2644,0,0.1847,0.1858,0.1903,0.192,0.1941,0.1989,0.2024,0.211,0.2165,0.2322,0.2366,0.2501,0.256,0.2667,0.2634,0.2653,0.269,0.2452,0.2332,0.2557,0.2544,0.2532,0.252,0.2119,0.2115,0.2111,0.2108,0,0.1831,0.1848,0.1869,0.1899,0.1932,0.197,0.2031,0.2071,0.2182,0.2261,0.2368,0.2437,0.2539,0.2451,0.2489,0.2457,0.2425,0.2374,0.2702,0.2133,0.2068,0.2053,0.2057,0.2073,0.2077,0.2079,0.2081,0.2082,0.1819,0.1824,0.185,0.1875,0.1906,0.1934,0.1943,0.2007,0.207,0.2139,0.2262,0.2269,0.2294,0.2222,0.2165,0.2114,0.2275,0.2143,0.2152,0.2166,0.2079,0.2015,0.1994,0.1997,0.2,0.2002,0.2004,0,0.1787,0.18,0.1824,0.1838,0.1837,0.1882,0.1929,0.1902,0.1917,0.1985,0.2031,0.1862,0.1815,0.1844,0.1709,0.1717,0.1671,0.1642,0.1546,0.1583,0.1615,0.1496,0.1259,0.1257,0.1255,0.1253,0,0,0.1773,0.1769,0.1774,0.1754,0.1767,0.1737,0.1742,0.1707,0.1711,0.1653,0.1618,0.1725,0.1788,0.149,0.1459,0.1334,0.1447,0.1283,0.1883,0.1806,0.1835,0.1911,0.1771,0,0,0,0,0]},{"header":{"parameterUnit":"m.s-1","parameterCategory":2,"la1":30.2991,"la2":30.254,"lo1":-89.0895,"lo2":-89.0444,"dy":0.0017,"dx":0.0017,"nx":28,"ny":28,"refTime":"2023-10-07T09:00:00:Z","depth":"2","parameterNumber":3,"parameterNumberName":"V-component_of_CURRENTS"},"data":[0,0,0,0,0,0,0,0,0,0,0,0,0,0,0,0,0,0,0,0,0,0,0,0,0,0,0,0,0,0,0,0,0,0,0,0,0,0,0,0,0,0,0,0,0,0,0,0,0,0,0,0,0,0,0,0,0,0,0.0024,0.0024,0,-0.0008,-0.0009,-0.0009,-0.0035,-0.0035,-0.0035,-0.0036,-0.0091,-0.0093,-0.0094,0,0,0,0,0,0,0,0,0,0,0,0,0,0.0033,0.0033,0.0024,0.0024,0.0023,-0.0008,-0.0009,-0.0009,-0.0035,-0.0035,-0.0035,-0.0036,-0.0091,-0.0092,-0.0094,0,0,0,0,0,0,0,0,0,0,0,0,0,0.0018,0.0033,0.0024,0.0007,0.0005,-0.0008,-0.0009,-0.0009,-0.0035,-0.0035,-0.0036,-0.0036,-0.009,-0.0092,-0.0094,-0.0099,0,0,-0.01,-0.0101,0,0,0,0,0,0,0,0,0.0019,0.0017,0.001,0.0008,0.0006,-0.0018,-0.0026,-0.004,-0.0035,-0.002,-0.0036,-0.0036,-0.0069,-0.0072,-0.0078,-0.0102,-0.0104,-0.01,-0.0101,-0.0102,-0.0103,0,0,0,0,0,0,0,0.002,0.0018,0.0011,0.0009,0.0007,-0.001,-0.0012,-0.0029,-0.0043,-0.0021,-0.0023,-0.0026,-0.007,-0.0076,-0.0079,-0.0105,-0.01,-0.0102,-0.0103,-0.0104,-0.0133,-0.0132,0,0,0,0,0,0,0.0026,0.002,0.0012,0.001,0.0012,-0.0009,-0.0012,-0.001,-0.0042,-0.0047,-0.0026,-0.0027,-0.0072,-0.0077,-0.0081,-0.0085,-0.0102,-0.0104,-0.0105,-0.0133,-0.0133,-0.0132,0,0,0,0,0,0,0.0027,0.0026,0.0013,0.0014,0.0011,-0.0009,-0.0007,-0.001,-0.0017,-0.0045,-0.0051,-0.0028,-0.0073,-0.0079,-0.009,-0.0087,-0.0105,-0.0107,-0.0133,-0.0133,-0.0132,-0.0094,0,0,0,0,0,0,0.0027,0.0027,0.003,0.0015,0.0011,0.001,-0.0006,-0.0011,-0.0018,-0.002,-0.0049,-0.0054,-0.0073,-0.0087,-0.0092,-0.009,-0.0108,-0.0134,-0.0133,-0.0133,-0.0096,-0.0092,-0.0089,0,0,0,0,0,0.0028,0.0036,0.003,0.0029,0.0017,0.0011,0.0008,-0.0009,-0.0018,-0.0016,-0.0034,-0.0054,-0.0087,-0.0088,-0.0094,-0.0093,-0.0134,-0.0133,-0.0133,-0.0097,-0.0093,-0.0089,0,0,0,0,0,0,0.0042,0.0034,0.0027,0.0033,0.0024,0.0006,0.0006,-0.0005,-0.0018,-0.0021,-0.0049,-0.0055,-0.0064,-0.0082,-0.0083,-0.0098,-0.0114,-0.0114,-0.0085,-0.0081,-0.0078,-0.0072,-0.011,0,0,0,0,0,0.0047,0.0052,0.0039,0.0044,0.0042,0.0024,0.0019,0.0009,-0.0004,-0.0011,-0.0031,-0.0051,-0.0065,-0.0075,-0.0091,-0.0099,-0.0121,-0.0102,-0.0099,-0.0096,-0.0094,-0.0127,-0.0127,-0.0129,-0.0129,-0.0129,0,0,0.0053,0.005,0.0052,0.0047,0.0039,0.0042,0.0021,0.0018,0.0019,-0.0015,-0.0019,-0.004,-0.0064,-0.0072,-0.0078,-0.0087,-0.0104,-0.0095,-0.0092,-0.0092,-0.0127,-0.0127,-0.0126,-0.0129,-0.0129,-0.0129,0,0,0.0071,0.0067,0.0077,0.0073,0.0065,0.0056,0.0057,0.0041,0.0034,0.0026,0.0004,-0.0013,-0.0037,-0.0053,-0.0064,-0.0052,-0.0085,-0.0058,-0.0038,-0.0071,-0.0071,-0.0071,-0.0088,-0.0091,-0.0057,-0.0057,-0.0057,0,0.0077,0.009,0.0078,0.0087,0.0089,0.0066,0.0077,0.0067,0.0049,0.0045,0.003,-0.0006,-0.0028,-0.0038,-0.0034,-0.0046,-0.0065,-0.0051,-0.0067,-0.0068,-0.0069,-0.0087,-0.009,-0.0055,-0.0056,-0.0056,-0.0056,0,0.0102,0.0112,0.0118,0.0124,0.0123,0.013,0.0117,0.0113,0.0098,0.0083,0.0067,0.0034,0.0012,0.0001,-0.0014,-0.0029,-0.0039,-0.0058,-0.0077,-0.0067,-0.0085,-0.0089,-0.0052,-0.0053,-0.0054,-0.0054,0,0,0.0124,0.0134,0.0138,0.0151,0.0145,0.0151,0.0154,0.0152,0.0157,0.0124,0.0122,0.0088,0.0062,0.0048,0.0021,-0.0009,-0.0032,-0.0034,-0.0037,-0.005,-0.0094,-0.0083,-0.0086,-0.0056,-0.0057,-0.0057,-0.01,0,0.0149,0.0178,0.0174,0.0202,0.0218,0.0203,0.0212,0.0204,0.0187,0.0178,0.0134,0.012,0.0082,0.0072,0.0035,-0.0012,-0.0042,-0.0018,-0.0102,-0.0104,-0.0096,-0.0091,-0.0053,-0.0087,-0.0104,-0.0105,-0.0105,0,0.0179,0.0196,0.023,0.0252,0.0258,0.027,0.0282,0.0285,0.0262,0.0247,0.0214,0.0176,0.0135,0.0097,0.0011,0.0028,-0.0029,-0.0073,-0.0076,-0.0083,-0.0101,-0.0102,-0.0094,-0.0112,-0.0112,-0.0111,-0.0111,0,0.0213,0.0238,0.0271,0.0278,0.0294,0.031,0.0317,0.0308,0.0323,0.0291,0.0294,0.0224,0.0204,0.0114,0.0025,0.0014,-0.007,-0.0098,-0.0142,-0.0142,-0.0135,-0.0132,-0.0165,-0.0165,-0.0165,-0.0165,-0.0165,0,0.0248,0.0273,0.0292,0.0313,0.0357,0.0351,0.039,0.0384,0.0384,0.0414,0.0336,0.0346,0.0205,0.0142,0.0043,-0.0051,-0.0058,-0.0136,-0.0154,-0.0118,-0.0114,-0.0159,-0.0158,-0.0167,-0.0166,-0.0166,-0.0166,0,0.0281,0.0291,0.0334,0.0362,0.0378,0.041,0.0452,0.0479,0.0468,0.0505,0.05,0.0437,0.0358,0.0221,0.0084,-0.0008,-0.0113,-0.0147,-0.0087,-0.0097,-0.017,-0.0167,-0.0207,-0.0207,-0.0207,-0.0207,-0.0207,0,0.0301,0.0327,0.0378,0.0413,0.0431,0.0478,0.0518,0.0525,0.0564,0.0578,0.0609,0.0536,0.0513,0.0314,0.013,-0.0043,-0.0086,-0.0128,-0.0149,-0.0162,-0.0176,-0.0172,-0.0168,-0.0122,-0.0122,-0.0121,-0.0121,0,0.0343,0.0361,0.04,0.0471,0.0524,0.0582,0.0641,0.0687,0.071,0.0747,0.0788,0.0766,0.0583,0.0416,0.0168,0.0054,-0.0101,-0.0121,-0.0157,-0.0113,-0.0085,-0.0097,-0.0096,-0.0116,-0.0116,-0.0117,-0.0117,-0.0117,0.0379,0.0414,0.0469,0.0537,0.06,0.0683,0.0744,0.0815,0.0896,0.0956,0.0928,0.0902,0.0695,0.0392,0.0183,-0.0048,-0.0047,-0.0133,-0.0134,-0.0135,-0.0113,-0.0086,-0.0113,-0.0113,-0.0114,-0.0114,-0.0114,0,0.0426,0.0464,0.0532,0.0617,0.0696,0.0716,0.0827,0.0899,0.1014,0.1048,0.1077,0.0903,0.0707,0.0457,0.0131,-0.0062,-0.0084,-0.013,-0.0117,-0.0119,-0.0122,-0.01,-0.0096,-0.0096,-0.0097,-0.0098,0,0,0.0453,0.0524,0.0557,0.0688,0.0747,0.086,0.0928,0.104,0.1097,0.1153,0.1126,0.1061,0.0773,0.0538,0.0276,0.0085,0.0025,0.005,0.0061,0.0107,0.0106,-0.0092,-0.0056,0,0,0,0,0]}],[{"header":{"parameterUnit":"m.s-1","parameterCategory":2,"la1":30.2991,"la2":30.254,"lo1":-89.0895,"lo2":-89.0444,"dy":0.0017,"dx":0.0017,"nx":28,"ny":28,"refTime":"2023-10-07T09:00:00:Z","depth":"4","parameterNumber":2,"parameterNumberName":"U-component_of_CURRENTS"},"data":[0,0,0,0,0,0,0,0,0,0,0,0,0,0,0,0,0,0,0,0,0,0,0,0,0,0,0,0,0,0,0,0,0,0,0,0,0,0,0,0,0,0,0,0,0,0,0,0,0,0,0,0,0,0,0,0,0,0,0.1216,0.1216,0,0.1242,0.1242,0.1242,0.1276,0.1276,0.1277,0.1278,0.1309,0.131,0.131,0,0,0,0,0,0,0,0,0,0,0,0,0,0.1175,0.1176,0.1216,0.1216,0.1217,0.1242,0.1242,0.1242,0.1276,0.1277,0.1277,0.1278,0.1309,0.131,0.131,0,0,0,0,0,0,0,0,0,0,0,0,0,0.1194,0.1176,0.1216,0.1238,0.124,0.1242,0.1242,0.1242,0.1275,0.1277,0.1278,0.1279,0.1309,0.131,0.131,0.129,0,0,0.1311,0.1311,0,0,0,0,0,0,0,0,0.1193,0.1196,0.1234,0.1236,0.1239,0.1258,0.1239,0.1259,0.1275,0.126,0.1278,0.1279,0.1293,0.1295,0.1295,0.1291,0.1293,0.1311,0.1311,0.1311,0.1311,0,0,0,0,0,0,0,0.1192,0.1195,0.1224,0.1234,0.1237,0.124,0.1243,0.1243,0.1269,0.1262,0.1265,0.127,0.1294,0.1294,0.1296,0.1293,0.1311,0.1311,0.1311,0.1311,0.1367,0.1368,0,0,0,0,0,0,0.1192,0.1193,0.1223,0.1225,0.122,0.124,0.1244,0.1249,0.1269,0.1274,0.1269,0.1271,0.1293,0.1295,0.1297,0.1355,0.1311,0.1311,0.1311,0.1365,0.1367,0.1369,0,0,0,0,0,0,0.1191,0.1194,0.1222,0.1211,0.1215,0.124,0.1245,0.1249,0.1279,0.1275,0.1279,0.1298,0.1294,0.1297,0.1326,0.1353,0.1311,0.1312,0.1364,0.1366,0.1368,0.1419,0,0,0,0,0,0,0.119,0.1194,0.1211,0.1211,0.1216,0.1244,0.1245,0.1249,0.128,0.1284,0.13,0.1303,0.1295,0.1326,0.1327,0.1353,0.1312,0.1362,0.1365,0.1367,0.1415,0.1422,0.1428,0,0,0,0,0,0.1188,0.1203,0.1211,0.1216,0.1234,0.1245,0.1248,0.1267,0.128,0.1297,0.1313,0.1304,0.1342,0.1327,0.1328,0.1355,0.1361,0.1364,0.1367,0.1413,0.1421,0.1428,0,0,0,0,0,0,0.1195,0.1208,0.1217,0.1236,0.125,0.1252,0.1273,0.1282,0.1307,0.1321,0.1317,0.132,0.1357,0.1349,0.1333,0.1379,0.1352,0.1355,0.1386,0.1394,0.14,0.1404,0.1312,0,0,0,0,0,0.1203,0.1221,0.1229,0.1249,0.1259,0.1271,0.1284,0.1296,0.1311,0.1324,0.1336,0.135,0.1363,0.1375,0.1382,0.1404,0.1404,0.1424,0.143,0.1435,0.144,0.1456,0.1464,0.1378,0.1378,0.1378,0,0,0.1212,0.1223,0.1234,0.1253,0.1267,0.1282,0.1282,0.131,0.1331,0.1322,0.1365,0.1374,0.1374,0.1403,0.1419,0.1404,0.1464,0.1439,0.1444,0.1445,0.146,0.1469,0.1476,0.138,0.138,0.138,0,0,0.1228,0.1249,0.1266,0.1281,0.1307,0.1312,0.1327,0.1346,0.1368,0.1398,0.1403,0.143,0.1448,0.1454,0.1458,0.1503,0.1497,0.1513,0.1548,0.1564,0.1571,0.1577,0.1604,0.1612,0.1516,0.1516,0.1516,0,0.1241,0.1259,0.1274,0.1292,0.131,0.1329,0.1349,0.1368,0.1397,0.1416,0.1423,0.1465,0.1469,0.1498,0.152,0.1516,0.1531,0.1517,0.1572,0.1578,0.1583,0.1608,0.1617,0.1519,0.1518,0.1518,0.1518,0,0.1257,0.1284,0.1298,0.1326,0.1346,0.137,0.1393,0.1426,0.1454,0.1466,0.1514,0.1523,0.1549,0.1557,0.1554,0.1599,0.16,0.1577,0.155,0.1595,0.1619,0.1627,0.1523,0.1522,0.1521,0.152,0,0,0.1252,0.13,0.1308,0.1328,0.1369,0.1382,0.1428,0.1462,0.1494,0.1529,0.1566,0.1598,0.1613,0.1619,0.1624,0.1641,0.1698,0.1636,0.1635,0.1659,0.1753,0.1651,0.165,0.1689,0.1691,0.1692,0.176,0,0.1263,0.1299,0.1324,0.1366,0.1384,0.1422,0.1459,0.1497,0.1532,0.1573,0.1596,0.1635,0.1633,0.166,0.1678,0.1694,0.1719,0.1682,0.1709,0.171,0.1611,0.1654,0.1695,0.1766,0.1767,0.1769,0.177,0,0.1263,0.129,0.1331,0.1385,0.1399,0.1433,0.1497,0.1533,0.159,0.1621,0.1664,0.1683,0.1733,0.1715,0.1772,0.1754,0.1766,0.1768,0.177,0.166,0.1621,0.1709,0.1783,0.1782,0.1781,0.178,0.1779,0,0.1235,0.1293,0.1328,0.1347,0.141,0.145,0.1493,0.1553,0.159,0.1663,0.1697,0.1745,0.1786,0.1806,0.1832,0.1813,0.188,0.1845,0.1764,0.1758,0.1806,0.1798,0.1878,0.1878,0.1878,0.1878,0.1877,0,0.1217,0.125,0.1326,0.1343,0.1395,0.1449,0.151,0.156,0.163,0.1669,0.1728,0.1762,0.1813,0.1853,0.1858,0.1843,0.1907,0.1779,0.1766,0.1829,0.1823,0.1812,0.1804,0.188,0.188,0.1879,0.1879,0,0.1173,0.1224,0.1268,0.1351,0.1382,0.1422,0.1517,0.1551,0.1637,0.1692,0.1723,0.18,0.1853,0.189,0.1929,0.187,0.1865,0.1843,0.1934,0.1924,0.1728,0.1722,0.175,0.1747,0.1744,0.1742,0.174,0,0.1148,0.1169,0.1264,0.1295,0.1339,0.141,0.1452,0.1545,0.1578,0.1698,0.171,0.1801,0.184,0.1815,0.1865,0.1871,0.1842,0.1828,0.1748,0.1729,0.1714,0.1712,0.1709,0.1736,0.1735,0.1735,0.1734,0,0.1099,0.1148,0.1185,0.1247,0.1301,0.1346,0.1418,0.1432,0.1536,0.1631,0.1653,0.1673,0.1728,0.1746,0.1771,0.1766,0.1825,0.18,0.1804,0.1729,0.1713,0.17,0.17,0.1725,0.1726,0.1727,0.1727,0,0.1068,0.108,0.1137,0.118,0.1241,0.1257,0.1308,0.1345,0.1389,0.1517,0.1528,0.1622,0.1712,0.1695,0.1718,0.1709,0.1668,0.1592,0.1606,0.1617,0.1538,0.1496,0.1437,0,0,0,0,0,0.1023,0.1026,0.1062,0.1095,0.115,0.1184,0.1266,0.1316,0.1421,0.1397,0.1454,0.1497,0.1523,0.1572,0.1534,0.1663,0.168,0.1611,0.1601,0.1675,0.1685,0.1604,0,0,0,0,0,0,0.0991,0.1021,0.1029,0.1011,0.1019,0.1061,0.111,0.1185,0.1174,0.129,0.1311,0.1401,0.145,0.1527,0.1502,0.1519,0.1479,0.1676,0.1672,0.1669,0.1678,0.1687,0.1607,0,0,0,0,0]},{"header":{"parameterUnit":"m.s-1","parameterCategory":2,"la1":30.2991,"la2":30.254,"lo1":-89.0895,"lo2":-89.0444,"dy":0.0017,"dx":0.0017,"nx":28,"ny":28,"refTime":"2023-10-07T09:00:00:Z","depth":"4","parameterNumber":3,"parameterNumberName":"V-component_of_CURRENTS"},"data":[0,0,0,0,0,0,0,0,0,0,0,0,0,0,0,0,0,0,0,0,0,0,0,0,0,0,0,0,0,0,0,0,0,0,0,0,0,0,0,0,0,0,0,0,0,0,0,0,0,0,0,0,0,0,0,0,0,0,0.0213,0.0213,0,0.0196,0.0196,0.0196,0.0187,0.0187,0.0187,0.0187,0.0166,0.0166,0.0165,0,0,0,0,0,0,0,0,0,0,0,0,0,0.0218,0.0218,0.0213,0.0213,0.0213,0.0196,0.0196,0.0196,0.0187,0.0187,0.0187,0.0187,0.0166,0.0166,0.0165,0,0,0,0,0,0,0,0,0,0,0,0,0,0.021,0.0218,0.0213,0.0206,0.0206,0.0196,0.0196,0.0196,0.0187,0.0187,0.0187,0.0187,0.0167,0.0166,0.0165,0.0161,0,0,0.0163,0.0162,0,0,0,0,0,0,0,0,0.021,0.021,0.0208,0.0207,0.0206,0.0194,0.019,0.0184,0.0187,0.0194,0.0187,0.0187,0.0175,0.0174,0.0171,0.016,0.0159,0.0163,0.0162,0.0162,0.0161,0,0,0,0,0,0,0,0.0211,0.021,0.0207,0.0207,0.0206,0.0197,0.0196,0.0189,0.0185,0.0194,0.0193,0.0191,0.0175,0.0172,0.017,0.0159,0.0163,0.0162,0.0161,0.0161,0.013,0.013,0,0,0,0,0,0,0.0214,0.0211,0.0207,0.0206,0.0208,0.0197,0.0196,0.0198,0.0185,0.0183,0.0191,0.0191,0.0173,0.0171,0.0169,0.0165,0.0162,0.0161,0.016,0.0131,0.013,0.013,0,0,0,0,0,0,0.0214,0.0214,0.0208,0.0208,0.0206,0.0197,0.0199,0.0198,0.0196,0.0183,0.0181,0.0191,0.0173,0.0171,0.0163,0.0164,0.0161,0.016,0.0131,0.013,0.013,0.0155,0,0,0,0,0,0,0.0214,0.0214,0.0217,0.0208,0.0206,0.0205,0.0199,0.0197,0.0195,0.0194,0.0183,0.0181,0.0173,0.0164,0.0162,0.0163,0.0159,0.0131,0.0131,0.013,0.0155,0.0155,0.0156,0,0,0,0,0,0.0215,0.0219,0.0218,0.0217,0.0211,0.0205,0.0203,0.0197,0.0195,0.0195,0.0186,0.0181,0.0159,0.0164,0.0161,0.0162,0.0132,0.0131,0.013,0.0154,0.0155,0.0156,0,0,0,0,0,0,0.0222,0.0219,0.0217,0.022,0.0214,0.0204,0.0204,0.0199,0.0192,0.0193,0.0181,0.0178,0.017,0.016,0.0166,0.0149,0.0143,0.0142,0.0162,0.0163,0.0163,0.0182,0.0159,0,0,0,0,0,0.0226,0.023,0.0222,0.0225,0.0223,0.0214,0.0212,0.0207,0.0199,0.0196,0.0187,0.0175,0.0165,0.016,0.0149,0.0143,0.0137,0.0139,0.014,0.0141,0.0153,0.0149,0.0151,0.0127,0.0127,0.0127,0,0,0.023,0.0228,0.023,0.0227,0.0223,0.0224,0.0213,0.0211,0.0213,0.0195,0.0195,0.0179,0.0163,0.0155,0.0151,0.0148,0.014,0.014,0.0141,0.0153,0.0148,0.0151,0.0153,0.0127,0.0127,0.0127,0,0,0.0239,0.0239,0.0245,0.0242,0.0238,0.0233,0.0233,0.0223,0.0221,0.0215,0.0202,0.019,0.0172,0.0164,0.0157,0.0155,0.0144,0.0144,0.0166,0.0162,0.0164,0.0166,0.0147,0.0148,0.0145,0.0145,0.0145,0,0.0243,0.0253,0.0245,0.025,0.0253,0.0239,0.0247,0.0241,0.0229,0.0231,0.0218,0.0197,0.0179,0.0178,0.0172,0.0159,0.015,0.0166,0.0165,0.0167,0.0168,0.0149,0.0149,0.0146,0.0146,0.0146,0.0146,0,0.0256,0.0266,0.0269,0.0274,0.0275,0.028,0.0271,0.027,0.0262,0.0255,0.025,0.0225,0.0217,0.02,0.0185,0.0187,0.0173,0.0167,0.0167,0.0173,0.0151,0.015,0.0148,0.0147,0.0147,0.0147,0,0,0.0267,0.0278,0.0281,0.0295,0.0291,0.0297,0.03,0.0304,0.0318,0.0292,0.0309,0.0273,0.0262,0.0253,0.023,0.0219,0.021,0.02,0.0199,0.019,0.0192,0.0164,0.016,0.0207,0.0207,0.0208,0.0167,0,0.0283,0.0306,0.0304,0.033,0.0344,0.0337,0.0347,0.0347,0.0342,0.0351,0.0323,0.0325,0.0282,0.0282,0.0263,0.0229,0.0213,0.0221,0.0181,0.018,0.0162,0.016,0.0209,0.0167,0.0166,0.0166,0.0166,0,0.03,0.0316,0.0346,0.0374,0.038,0.0393,0.0419,0.0425,0.0426,0.0422,0.0413,0.0393,0.0372,0.0339,0.0283,0.0291,0.0246,0.0213,0.021,0.018,0.0151,0.0162,0.0166,0.0166,0.0166,0.0166,0.0166,0,0.0325,0.0349,0.0381,0.0388,0.0411,0.043,0.0443,0.0451,0.0471,0.0475,0.0489,0.0454,0.0447,0.0391,0.0306,0.03,0.0244,0.0228,0.0159,0.0156,0.0184,0.0182,0.0197,0.0197,0.0198,0.0198,0.0198,0,0.0347,0.0373,0.04,0.0419,0.0466,0.0468,0.0516,0.0521,0.0541,0.0573,0.0535,0.0546,0.0462,0.0414,0.0333,0.0241,0.0262,0.0167,0.0149,0.0191,0.0191,0.0183,0.0182,0.0196,0.0196,0.0197,0.0197,0,0.0368,0.0383,0.0426,0.0463,0.0482,0.0517,0.0569,0.0601,0.061,0.0652,0.0658,0.0619,0.0547,0.045,0.0354,0.0278,0.0192,0.0155,0.0201,0.0186,0.0099,0.0099,0.0079,0.0077,0.0076,0.0075,0.0075,0,0.038,0.0405,0.0464,0.0499,0.0521,0.0574,0.0614,0.0638,0.0673,0.0693,0.0717,0.0663,0.0619,0.0461,0.0351,0.0194,0.0167,0.0121,0.0113,0.0105,0.0089,0.0091,0.0093,0.0073,0.0073,0.0072,0.0072,0,0.0407,0.0431,0.0468,0.0538,0.0591,0.065,0.0707,0.0736,0.0764,0.0775,0.0761,0.0678,0.0593,0.0458,0.0332,0.0221,0.0151,0.0109,0.0111,0.0102,0.0098,0.0084,0.0087,0.0069,0.0069,0.0069,0.007,0,0.043,0.0461,0.0514,0.0575,0.0643,0.0705,0.0733,0.0768,0.0798,0.0809,0.0801,0.0705,0.0649,0.0472,0.0361,0.0241,0.0207,0.0167,0.0165,0.0167,0.0197,0.0205,0.0198,0,0,0,0,0,0.0448,0.0485,0.0545,0.0614,0.068,0.0722,0.0786,0.0806,0.0833,0.0826,0.0812,0.0727,0.0555,0.0486,0.0361,0.0334,0.0185,0.0182,0.0137,0.0048,0.0053,0.0069,0,0,0,0,0,0,0.0463,0.0519,0.0547,0.0634,0.0684,0.0762,0.0805,0.0824,0.0817,0.0819,0.0729,0.0689,0.0521,0.0623,0.0356,0.0321,0.0273,0.0105,0.0102,0.0046,0.005,0.0053,0.0072,0,0,0,0,0]}]]